Regional Weather Roundup
Issued by NWS

Home | Current Version | Previous Version | Graphics & Text | Print | Product List | Glossary On
Versions: 1 2 3 4 5 6 7 8 9 10 11 12 13 14 15 16 17 18 19 20 21 22 23 24 25 26 27 28 29 30 31 32 33 34 35 36 37 38 39 40 41 42 43 44 45 46 47 48 49 50
000
ASUS43 KFSD 262310
RWRSD

WEATHER ROUNDUP FOR SOUTH DAKOTA
NATIONAL WEATHER SERVICE SIOUX FALLS SD
600 PM CDT THU MAR 26 2015

NOTE: "FAIR" INDICATES FEW OR NO CLOUDS BELOW 12,000 FEET WITH NO
SIGNIFICANT WEATHER AND/OR OBSTRUCTIONS TO VISIBILITY.


SDZ001>005-009-010-012>017-270000-
NORTHWEST AND NORTH CENTRAL SOUTH DAKOTA

CITY           SKY/WX    TMP DP  RH WIND       PRES   REMARKS
BUFFALO          N/A     45  31  58 E12       30.05F
MOBRIDGE       CLOUDY    41  22  46 N5        30.18R
$$

SDZ012>016-024>037-041>051-057-063-072>074-270000-
SOUTHWEST AND SOUTH CENTRAL SOUTH DAKOTA

CITY           SKY/WX    TMP DP  RH WIND       PRES   REMARKS
RAPID CTY ARPT CLOUDY    47  29  49 NE14      30.12R
PIERRE         CLOUDY    36  31  82 W7        30.20R
CUSTER         CLOUDY    43  26  51 N10G17    30.09R
ELLSWORTH AFB  CLOUDY    47  29  50 N10       30.11S
PHILIP         CLOUDY    38  28  67 E10       30.19R
PINE RIDGE     CLOUDY    48  27  44 N12       30.11R
SPEARFISH      FAIR      45  28  53 N10G21    30.12S
WINNER         CLOUDY    36  29  75 N9        30.19R
$$

SDZ004>011-016>023-039-040-270000-
NORTHEAST SOUTH DAKOTA

CITY           SKY/WX    TMP DP  RH WIND       PRES   REMARKS
ABERDEEN       SUNNY     39  14  36 NE13      30.23R
WATERTOWN      MOSUNNY   33  15  47 N17       30.17R WCI  22
SISSETON         N/A     34  15  46 N20G29    30.21R WCI  23
$$

SDZ017-020-022-023-036>040-048>070-270000-
SOUTHEAST SOUTH DAKOTA

CITY           SKY/WX    TMP DP  RH WIND       PRES   REMARKS
SIOUX FALLS    CLOUDY    39  21  48 N8        30.14S
HURON          PTSUNNY   40  19  43 N17       30.19R
CHAMBERLAIN    CLOUDY    36  28  74 NE3       30.19S
MITCHELL       CLOUDY    40  25  55 NW10      30.18S
YANKTON        CLOUDY    37  27  65 NW10      30.18R
$$

ABBREVIATIONS USED IN REMARKS
   TC - TEMPERATURE IN CELSIUS
  WCI - WIND CHILL INDEX
   HX - HEAT INDEX
  VSB - VISIBILITY



USA.gov is the U.S. government's official web portal to all federal, state and local government web resources and services.